User: anonymous
Location: Caltech
(34.1382°N, 118.1253°W)
Time: 22:57:25
(UTC-07:00)
Language:

SO-50 - Orbit

View from above orbital plane
View from above orbital plane
View from above satellite
View from above satellite

Ground track
Ground track

The orbit data is extracted from the following two-line orbital elements,

1 27607U 02058C   14203.16594909  .00000212  00000-0  52805-4 0  4534
2 27607 064.5571 125.7153 0051924 000.7755 359.3417 14.73828548622632
Epoch (UTC): 22 July 2014 03:58:58
Eccentricity: 0.0051924
inclination: 64.5571°
perigee height: 612 km
apogee height: 685 km
right ascension of ascending node: 125.7153°
argument of perigee: 0.7755°
revolutions per day: 14.73828548
mean anomaly at epoch: 359.3417°
orbit number at epoch: 62263

The dashed part of the orbit path shows where the satellite is in the earth's shadow,  

DLR